• In Deutschland
  • Länderverzeichnis
  • Für 7 Tage
  • Wassertemperatur
  • Satellitenkarten
  • Wetterkarte
  • Widgets
  • user-avatar
    Anmelden

    Stündliche Wetter Larissa

    Heute, 22 August, Mittwoch

    Zeit Temperatur Niederschläge Wind Luftdruck Luftfeuchtigkeit
    00:00 +24°C° 0 mm 2 m/S 754 mmHg 48%
    01:00 +24°C° 0 mm 2 m/S 754 mmHg 48%
    02:00 +24°C° 0 mm 2 m/S 754 mmHg 50%
    03:00 +23°C° 0 mm 2 m/S 754 mmHg 51%
    04:00 +23°C° 0 mm 2 m/S 754 mmHg 53%
    05:00 +24°C° 0 mm 2 m/S 754 mmHg 50%
    06:00 +25°C° 0 mm 2 m/S 754 mmHg 47%
    07:00 +27°C° 0 mm 2 m/S 755 mmHg 45%
    08:00 +28°C° 0 mm 2 m/S 755 mmHg 41%
    09:00 +30°C° 0 mm 2 m/S 755 mmHg 36%
    10:00 +32°C° 0 mm 2 m/S 755 mmHg 32%
    11:00 +34°C° 0 mm 2 m/S 754 mmHg 30%
    12:00 +34°C° 0 mm 3 m/S 754 mmHg 28%
    13:00 +35°C° 0 mm 3 m/S 754 mmHg 26%
    14:00 +35°C° 0 mm 3 m/S 753 mmHg 26%
    15:00 +34°C° 0 mm 3 m/S 753 mmHg 26%
    16:00 +34°C° 0 mm 3 m/S 753 mmHg 26%
    17:00 +31°C° 0 mm 2 m/S 753 mmHg 29%
    18:00 +29°C° 0 mm 2 m/S 753 mmHg 32%
    19:00 +27°C° 0 mm 1 m/S 753 mmHg 35%
    20:00 +26°C° 0 mm 1 m/S 754 mmHg 35%
    21:00 +26°C° 0 mm 1 m/S 754 mmHg 35%
    22:00 +25°C° 0 mm 1 m/S 754 mmHg 35%
    23:00 +25°C° 0 mm 1 m/S 754 mmHg 36%

    Morgen, 23 August, Donnerstag

    Zeit Temperatur Niederschläge Wind Luftdruck Luftfeuchtigkeit
    00:00 +25°C° 0 mm 1 m/S 754 mmHg 37%
    01:00 +24°C° 0 mm 2 m/S 754 mmHg 38%
    02:00 +24°C° 0 mm 2 m/S 754 mmHg 40%
    03:00 +24°C° 0 mm 2 m/S 754 mmHg 43%
    04:00 +23°C° 0 mm 2 m/S 753 mmHg 46%
    05:00 +24°C° 0 mm 2 m/S 753 mmHg 45%
    06:00 +26°C° 0 mm 2 m/S 753 mmHg 44%
    07:00 +27°C° 0 mm 2 m/S 753 mmHg 43%
    08:00 +28°C° 0 mm 2 m/S 753 mmHg 38%
    09:00 +30°C° 0 mm 2 m/S 753 mmHg 33%
    10:00 +32°C° 0 mm 2 m/S 753 mmHg 29%
    11:00 +33°C° 0 mm 3 m/S 753 mmHg 27%
    12:00 +34°C° 0 mm 3 m/S 753 mmHg 26%
    13:00 +34°C° 0 mm 3 m/S 752 mmHg 25%
    14:00 +34°C° 0 mm 3 m/S 752 mmHg 25%
    15:00 +34°C° 0 mm 3 m/S 752 mmHg 25%
    16:00 +34°C° 0 mm 3 m/S 751 mmHg 25%
    17:00 +31°C° 0 mm 3 m/S 751 mmHg 28%
    18:00 +29°C° 0 mm 2 m/S 752 mmHg 30%
    19:00 +27°C° 0 mm 2 m/S 752 mmHg 33%
    20:00 +27°C° 0 mm 2 m/S 752 mmHg 33%
    21:00 +26°C° 0 mm 2 m/S 752 mmHg 34%
    22:00 +26°C° 0 mm 2 m/S 752 mmHg 34%
    23:00 +26°C° 0 mm 2 m/S 752 mmHg 34%

    übermorgen, 24 August, Freitag

    Zeit Temperatur Niederschläge Wind Luftdruck Luftfeuchtigkeit
    00:00 +25°C° 0 mm 2 m/S 752 mmHg 35%
    01:00 +25°C° 0 mm 2 m/S 752 mmHg 36%
    02:00 +25°C° 0 mm 2 m/S 752 mmHg 39%
    03:00 +24°C° 0 mm 1 m/S 752 mmHg 43%
    04:00 +24°C° 0 mm 1 m/S 751 mmHg 47%
    05:00 +25°C° 0 mm 1 m/S 752 mmHg 46%
    06:00 +26°C° 0 mm 1 m/S 752 mmHg 45%
    07:00 +27°C° 0 mm 1 m/S 752 mmHg 45%
    08:00 +29°C° 0 mm 1 m/S 752 mmHg 42%
    09:00 +30°C° 0 mm 1 m/S 752 mmHg 40%
    10:00 +32°C° 0 mm 1 m/S 752 mmHg 37%
    11:00 +32°C° 0 mm 2 m/S 751 mmHg 35%
    12:00 +34°C° 0 mm 2 m/S 751 mmHg 34%
    13:00 +35°C° 0 mm 2 m/S 751 mmHg 32%
    14:00 +34°C° 0 mm 2 m/S 750 mmHg 33%
    15:00 +34°C° 0 mm 2 m/S 750 mmHg 34%
    16:00 +34°C° 0 mm 2 m/S 750 mmHg 34%
    17:00 +31°C° 0 mm 2 m/S 750 mmHg 38%
    18:00 +29°C° 0 mm 2 m/S 750 mmHg 43%
    19:00 +28°C° 0 mm 1 m/S 750 mmHg 47%
    20:00 +27°C° 0 mm 1 m/S 750 mmHg 48%
    21:00 +27°C° 0 mm 1 m/S 750 mmHg 49%
    22:00 +26°C° 0 mm 1 m/S 750 mmHg 49%
    23:00 +26°C° 0 mm 1 m/S 750 mmHg 50%

    25 August, Samstag

    Zeit Temperatur Niederschläge Wind Luftdruck Luftfeuchtigkeit
    00:00 +25°C° 0 mm 1 m/S 750 mmHg 51%
    01:00 +25°C° 0 mm 1 m/S 750 mmHg 52%
    02:00 +25°C° 0 mm 1 m/S 750 mmHg 54%
    03:00 +24°C° 0 mm 1 m/S 750 mmHg 55%
    04:00 +24°C° 0 mm 1 m/S 750 mmHg 56%
    05:00 +25°C° 0 mm 1 m/S 750 mmHg 53%
    06:00 +27°C° 0 mm 1 m/S 750 mmHg 50%
    07:00 +28°C° 0 mm 1 m/S 750 mmHg 47%
    08:00 +30°C° 0 mm 1 m/S 750 mmHg 42%
    09:00 +32°C° 0 mm 1 m/S 750 mmHg 37%
    10:00 +33°C° 0 mm 1 m/S 750 mmHg 33%
    11:00 +34°C° 0 mm 1 m/S 750 mmHg 32%
    12:00 +35°C° 0 mm 1 m/S 749 mmHg 31%
    13:00 +36°C° 0 mm 2 m/S 749 mmHg 29%
    14:00 +36°C° 0 mm 2 m/S 749 mmHg 31%
    15:00 +35°C° 0 mm 2 m/S 749 mmHg 33%
    16:00 +35°C° 0 mm 2 m/S 748 mmHg 35%
    17:00 +32°C° 0,1 mm 2 m/S 748 mmHg 41%
    18:00 +30°C° 0,1 mm 2 m/S 749 mmHg 46%
    19:00 +29°C° 0,1 mm 2 m/S 749 mmHg 52%
    20:00 +28°C° 0 mm 2 m/S 749 mmHg 55%
    21:00 +27°C° 0 mm 1 m/S 749 mmHg 57%
    22:00 +27°C° 0 mm 1 m/S 749 mmHg 59%
    23:00 +26°C° 0 mm 1 m/S 749 mmHg 60%

    26 August, Sonntag

    Zeit Temperatur Niederschläge Wind Luftdruck Luftfeuchtigkeit
    00:00 +26°C° 0 mm 1 m/S 749 mmHg 61%
    01:00 +25°C° 0 mm 1 m/S 749 mmHg 62%
    02:00 +25°C° 0 mm 1 m/S 749 mmHg 63%
    03:00 +25°C° 0 mm 1 m/S 749 mmHg 64%
    04:00 +24°C° 0 mm 2 m/S 749 mmHg 65%
    05:00 +25°C° 0 mm 1 m/S 749 mmHg 61%
    06:00 +27°C° 0 mm 1 m/S 749 mmHg 57%
    07:00 +28°C° 0 mm 1 m/S 749 mmHg 53%
    08:00 +30°C° 0 mm 1 m/S 749 mmHg 47%
    09:00 +32°C° 0 mm 1 m/S 749 mmHg 41%
    10:00 +34°C° 0 mm 1 m/S 749 mmHg 35%
    11:00 +35°C° 0 mm 1 m/S 749 mmHg 33%
    12:00 +35°C° 0 mm 1 m/S 748 mmHg 31%
    13:00 +37°C° 0 mm 2 m/S 748 mmHg 28%
    14:00 +37°C° 0 mm 2 m/S 748 mmHg 30%
    15:00 +36°C° 0 mm 3 m/S 747 mmHg 31%
    16:00 +36°C° 0 mm 3 m/S 747 mmHg 33%
    17:00 +34°C° 0,1 mm 3 m/S 747 mmHg 40%
    18:00 +31°C° 0,1 mm 2 m/S 748 mmHg 46%
    19:00 +29°C° 0,1 mm 2 m/S 748 mmHg 53%
    20:00 +28°C° 0,1 mm 2 m/S 748 mmHg 57%
    21:00 +27°C° 0,1 mm 2 m/S 748 mmHg 60%
    22:00 +26°C° 0,1 mm 2 m/S 748 mmHg 63%
    23:00 +26°C° 0,8 mm 2 m/S 748 mmHg 66%

    27 August, Montag

    Zeit Temperatur Niederschläge Wind Luftdruck Luftfeuchtigkeit
    00:00 +25°C° 0,8 mm 2 m/S 748 mmHg 69%
    01:00 +24°C° 0,8 mm 2 m/S 748 mmHg 72%
    02:00 +24°C° 0,4 mm 2 m/S 748 mmHg 73%
    03:00 +24°C° 0,4 mm 3 m/S 748 mmHg 74%
    04:00 +22°C° 0,4 mm 3 m/S 748 mmHg 75%
    05:00 +24°C° 0,2 mm 3 m/S 748 mmHg 71%
    06:00 +25°C° 0,2 mm 3 m/S 748 mmHg 68%
    07:00 +26°C° 0,2 mm 3 m/S 749 mmHg 64%
    08:00 +27°C° 0,1 mm 3 m/S 749 mmHg 58%
    09:00 +29°C° 0,1 mm 3 m/S 749 mmHg 53%
    10:00 +30°C° 0,1 mm 3 m/S 749 mmHg 47%
    11:00 +31°C° 0,1 mm 3 m/S 749 mmHg 45%
    12:00 +31°C° 0,1 mm 3 m/S 749 mmHg 42%
    13:00 +33°C° 0,1 mm 3 m/S 749 mmHg 39%
    14:00 +31°C° 0,2 mm 3 m/S 749 mmHg 41%
    15:00 +31°C° 0,2 mm 3 m/S 749 mmHg 42%
    16:00 +30°C° 0,2 mm 2 m/S 749 mmHg 44%
    17:00 +29°C° 0,1 mm 2 m/S 749 mmHg 47%
    18:00 +28°C° 0,1 mm 2 m/S 750 mmHg 50%
    19:00 +27°C° 0,1 mm 2 m/S 750 mmHg 53%
    20:00 +26°C° 0 mm 3 m/S 751 mmHg 54%
    21:00 +25°C° 0 mm 3 m/S 751 mmHg 55%
    22:00 +24°C° 0 mm 3 m/S 752 mmHg 57%
    23:00 +24°C° 0 mm 3 m/S 752 mmHg 57%
    Mehr zeigen